Ana Sayfa
METAR-TAF:

METAR-TAF

Havaalanları :

Culpeper Regional Airport (T.I. Martin Field)

Culpeper, Virginia, Amerika Birleşik Devletleri

Enlem: 38-31-36N, Boylam: 077-51-32W, yükseklik: 95 m

Güncel hava durumu gözlemi

Rapor saat 09:55 UTC de 30 dakika önce yapıldı.
Rüzgar güney/güneybatıdan 3 kt
Sıcaklık -1°C
Nem 54%
Basınç 1015 hPa
Görüş mesafesi: 16.1 km
6500 ft yükseklikte parçalı bulutlu

METAR: KCJR 280955Z AUTO 21003KT 10SM SCT065 M01/M09 A2996 RMK AO2 T10071092

Saat: 05:25 (10:25 UTC)


TAF: eksik

4.000'den fazla havaalanı için hava durumu gözlemleri ve tahminleri (METAR ve TAF raporları).

Kullanılabilir istasyonlar harita üzerinde sarı ve kırmızı noktalarla gösterilir.

İstasyonun adını görmek için fareyi noktanın üzerinde gezdirin.

Sonrasında hava gözlem ve tahminlerini görmek için tıklayın.

Haritayı değiştirmek için: yaklaştırmak için siyah artı işaretli yeşil düğmeye ve uzaklaştırmak için de eksi işaretli düğmeye hızla tıklayın; bitişik haritalar için yeşil okları kullanın.


METAR-TAF: